Location: Delta State University
(33.7460°N, 90.7320°W)
Time: 08:48:33
(UTC-05:00)

Iridium 13 - Visible Passes

Search period start: 23 July 2014 00:00
Search period end: 02 August 2014 00:00
Orbit: 776 x 779 km, 86.4° (Epoch: 22 July)

Date Brightness Start Highest point End Pass type
(mag) Time Alt. Az. Time Alt. Az. Time Alt. Az.
23 Jul 5.6 21:36:49 10° N 21:42:02 82° W 21:46:29 14° S visible
24 Jul 5.7 21:03:26 10° N 21:08:30 50° E 21:13:29 10° SSE visible
24 Jul 8.1 22:45:57 10° NW 22:48:40 14° W 22:51:24 10° WSW visible
25 Jul 6.6 20:30:31 10° NNE 20:34:50 26° E 20:39:08 10° SE visible
25 Jul 7.4 22:11:04 10° NNW 22:15:26 28° W 22:19:48 10° SW visible
26 Jul 6.2 21:37:01 10° NNW 21:42:05 54° W 21:47:08 10° SSW visible
27 Jul 5.5 21:03:24 10° N 21:08:37 77° E 21:13:48 10° S visible
28 Jul 6.1 20:30:11 10° NNE 20:35:02 39° E 20:39:51 10° SSE visible
28 Jul 8.0 22:11:49 10° NW 22:15:23 19° W 22:18:56 10° SW visible
29 Jul 7.0 21:37:22 10° NNW 21:42:05 36° W 21:46:48 10° SSW visible
30 Jul 5.8 21:03:30 10° N 21:08:41 72° W 21:13:51 10° S visible
31 Jul 5.6 20:30:02 10° N 20:35:11 58° E 20:40:17 10° SSE visible
31 Jul 8.4 22:13:11 10° NW 22:15:16 12° W 22:17:21 10° WSW visible
01 Aug 7.7 21:37:55 10° NNW 21:42:03 24° W 21:46:11 10° SW visible
